[[{"header":{"parameterUnit":"m.s-1","parameterCategory":1,"la1":30.2992,"la2":30.254,"lo1":-89.0895,"lo2":-89.0443,"dy":0.0025,"dx":0.0025,"nx":19,"ny":19,"refTime":"2026-03-14T03:00:00:Z","depth":0,"parameterNumber":2,"parameterNumberName":"U-component_of_WINDS"},"data":[0,0,0,-2.4308,-2.4309,-2.4378,-2.4378,-2.4469,-2.447,0,0,0,0,0,0,0,0,0,0,0,-2.4289,-2.429,-2.4308,-2.4309,-2.4378,-2.4378,-2.4469,-2.447,0,0,0,0,0,0,0,0,0,0,0,-2.4289,-2.429,-2.4291,-2.431,-2.4378,-2.4378,-2.4469,-2.4416,0,0,0,0,0,0,0,0,0,0,-2.4349,-2.4334,-2.429,-2.4291,-2.431,-2.4378,-2.4378,-2.4413,-2.4419,-2.444,0,-2.4458,0,-2.4466,-2.4477,-2.4477,0,0,0,-2.4308,-2.4329,-2.4346,-2.4291,-2.4311,-2.4378,-2.4346,-2.4417,-2.4423,-2.4448,-2.446,-2.4463,-2.4467,-2.4477,-2.4478,-2.4601,-2.4602,0,0,-2.4304,-2.4303,-2.4341,-2.435,-2.4339,-2.4344,-2.4349,-2.4421,-2.4434,-2.446,-2.4465,-2.4469,-2.4478,-2.4479,-2.46,-2.4601,0,0,0,-2.4294,-2.43,-2.4315,-2.4346,-2.4358,-2.4346,-2.4351,-2.443,-2.4435,-2.4466,-2.447,-2.4478,-2.448,-2.46,-2.4601,-2.4631,0,0,0,-2.4292,-2.4294,-2.4313,-2.4313,-2.4357,-2.4395,-2.4359,-2.443,-2.4439,-2.447,-2.4478,-2.4481,-2.4599,-2.46,-2.4629,-2.4645,0,0,0,-2.4284,-2.4293,-2.4304,-2.4313,-2.4342,-2.4394,-2.4403,-2.4432,-2.4441,-2.4477,-2.4481,-2.4599,-2.46,-2.4626,-2.4642,-2.4677,0,0,0,-2.4276,-2.433,-2.4304,-2.4367,-2.4342,-2.4412,-2.4403,-2.4455,-2.449,-2.4479,-2.4599,-2.4601,-2.4626,-2.4639,-2.4675,-2.4706,-2.4719,0,0,-2.4343,-2.4338,-2.4374,-2.4354,-2.4428,-2.4402,-2.4482,-2.4514,-2.4519,-2.4574,-2.4577,-2.4629,-2.4641,-2.4677,-2.4794,-2.4804,0,0,0,-2.4395,-2.4421,-2.4442,-2.4474,-2.4501,-2.4526,-2.4547,-2.4559,-2.4605,-2.4547,-2.4652,-2.4659,-2.468,-2.4695,-2.4704,-2.4722,-2.4608,-2.4608,-2.4607,-2.4487,-2.4491,-2.4552,-2.4565,-2.4597,-2.4619,-2.4645,-2.4666,-2.466,-2.4685,-2.47,-2.4771,-2.4789,-2.4795,-2.4814,-2.4718,-2.4718,-2.4718,-2.4718,-2.4586,-2.4623,-2.4616,-2.4672,-2.4676,-2.4723,-2.4747,-2.4742,-2.4787,-2.4759,-2.4778,-2.4747,-2.4807,-2.4823,-2.4721,-2.472,-2.472,-2.472,-2.472,-2.4646,-2.4665,-2.4679,-2.4728,-2.4765,-2.4777,-2.482,-2.4823,-2.4825,-2.4843,-2.486,-2.486,-2.4859,-2.4852,-2.4852,-2.4852,-2.4852,-2.4853,-2.4853,-2.4702,-2.4718,-2.4754,-2.4788,-2.481,-2.484,-2.4863,-2.4885,-2.491,-2.4908,-2.4908,-2.49,-2.4812,-2.4789,-2.4856,-2.4856,-2.4855,-2.4855,-2.4855,-2.4799,-2.4778,-2.4834,-2.4856,-2.4897,-2.4934,-2.4937,-2.4982,-2.5,-2.5022,-2.5011,-2.4946,-2.494,-2.4933,-2.4914,-2.501,-2.501,-2.501,-2.501,-2.4849,-2.4847,-2.4905,-2.4941,-2.4976,-2.4985,-2.5049,-2.5069,-2.5086,-2.5098,-2.5085,-2.5061,-2.5054,-2.5052,-2.5043,-2.5025,-2.5147,-2.5147,-2.5147,-2.4909,-2.491,-2.4964,-2.4981,-2.5013,-2.5041,-2.5102,-2.5144,-2.5159,-2.5153,-2.5107,-2.5102,-2.5063,-2.505,-2.5041,-2.5026,-2.4994,0,0]},{"header":{"parameterUnit":"m.s-1","parameterCategory":1,"la1":30.2992,"la2":30.254,"lo1":-89.0895,"lo2":-89.0443,"dy":0.0025,"dx":0.0025,"nx":19,"ny":19,"refTime":"2026-03-14T03:00:00:Z","depth":0,"parameterNumber":3,"parameterNumberName":"V-component_of_WINDS"},"data":[0,0,0,2.0951,2.0951,2.0961,2.0961,2.0958,2.0958,0,0,0,0,0,0,0,0,0,0,0,2.0939,2.0939,2.0951,2.0951,2.0961,2.0961,2.0958,2.0958,0,0,0,0,0,0,0,0,0,0,0,2.094,2.0939,2.0939,2.0951,2.0961,2.0961,2.0958,2.0956,0,0,0,0,0,0,0,0,0,0,2.0949,2.093,2.0939,2.0939,2.0951,2.0961,2.0961,2.0956,2.0956,2.0947,0,2.0938,0,2.0948,2.0957,2.0957,0,0,0,2.0957,2.093,2.0941,2.0939,2.0951,2.0961,2.0958,2.0956,2.0956,2.0947,2.0939,2.0939,2.0948,2.0957,2.0957,2.089,2.089,0,0,2.0956,2.0936,2.0941,2.094,2.0939,2.0958,2.0958,2.0957,2.0945,2.0939,2.0939,2.0948,2.0957,2.0957,2.0891,2.089,0,0,0,2.0951,2.0935,2.0947,2.094,2.0943,2.0958,2.0959,2.0945,2.0951,2.0939,2.0948,2.0957,2.0957,2.0892,2.0891,2.0843,0,0,0,2.0951,2.0932,2.0946,2.0934,2.0943,2.0945,2.0947,2.0951,2.0951,2.0948,2.0957,2.0956,2.0892,2.0891,2.0846,2.0823,0,0,0,2.0942,2.0931,2.093,2.0933,2.0937,2.0945,2.0951,2.0951,2.0956,2.0957,2.0956,2.0893,2.0891,2.0848,2.0827,2.08,0,0,0,2.0926,2.0886,2.0929,2.0889,2.0937,2.0916,2.0951,2.0936,2.0931,2.0957,2.0892,2.0891,2.0849,2.083,2.0803,2.0773,2.0759,0,0,2.0865,2.0878,2.0857,2.0895,2.0862,2.0916,2.0876,2.0889,2.0907,2.0894,2.0893,2.0845,2.0828,2.0801,2.069,2.0678,0,0,0,2.0831,2.0814,2.081,2.0806,2.0816,2.0823,2.0845,2.085,2.0841,2.0897,2.0829,2.0819,2.0804,2.0791,2.0781,2.0769,2.0884,2.0884,2.0884,2.0715,2.0741,2.0707,2.0734,2.0729,2.0754,2.0751,2.0762,2.0789,2.0772,2.0768,2.0698,2.0682,2.0675,2.0662,2.0756,2.0755,2.0755,2.0755,2.0628,2.0609,2.0648,2.0628,2.0656,2.0639,2.0661,2.068,2.0668,2.0703,2.0691,2.0726,2.0662,2.0652,2.0752,2.0752,2.0753,2.0753,2.0753,2.0554,2.055,2.0559,2.0556,2.055,2.0579,2.0566,2.0592,2.0615,2.0604,2.0602,2.0603,2.0607,2.0602,2.0601,2.0601,2.0601,2.0601,2.0601,2.0474,2.0486,2.0473,2.0482,2.0483,2.0487,2.0512,2.0513,2.0521,2.054,2.054,2.0568,2.0651,2.0671,2.0597,2.0597,2.0598,2.0598,2.0599,2.0375,2.0402,2.0382,2.0383,2.0396,2.0389,2.0423,2.0423,2.0428,2.0421,2.0452,2.051,2.0524,2.0532,2.0549,2.0447,2.0447,2.0447,2.0447,2.0313,2.0324,2.0309,2.0309,2.0313,2.0341,2.0317,2.0336,2.0359,2.0364,2.0382,2.0407,2.0414,2.0425,2.0435,2.045,2.0326,2.0326,2.0326,2.0253,2.0266,2.024,2.0266,2.0278,2.0288,2.0266,2.0264,2.0296,2.0321,2.0368,2.0373,2.0413,2.0425,2.0449,2.0464,2.0494,0,0]}]]